Flag for U.S.A. Weather past 2 weeks in Augusta, Maine, U.S.A.

Now
74 °F

Scattered clouds.


Feels Like: 74 °F
Forecast: 64 / 77 °F
Wind: 7 mph from South

Location: Augusta State Airport

Current Time: Aug 4, 2015 at 12:23:08 PM

Latest Report: Aug 4, 2015 at 11:53 AM


Visibility: 10 mi

Pressure: 29.83 "Hg

Humidity: 79%

Dew point: 67 °F

Location of AugustaLocation

Historic Weather in Augusta — Graph

°F

Augusta temperature yesterday

Maximum temperature yesterday: 82 °F (at 1:53 PM)
Minimum temperature yesterday: 61 °F (at 4:53 AM)
Average temperature yesterday: 72 °F

Past Weeks' High & Low Weather Summary

 TemperatureHumidityPressure
High86 °F (Jul 20, 4:53 PM)100% (Jul 22, 12:53 AM)30.08 "Hg (Jul 22, 12:53 AM)
Low53 °F (Jul 26, 2:53 AM)37% (Jul 22, 2:53 PM)29.55 "Hg (Jul 21, 5:53 PM)
Average69 °F78%29.84 "Hg
* Reported Jul 20 10:53 AM — Aug 4 10:53 AM, Augusta, Weather by CustomWeather, © 2015

Note: Actual official high and low records may vary slightly from our data, if they occured in-between our weather recording intervals... More about our weather records

Advertising

Augusta weather history for previous 24 hours

 ConditionsComfort  
Time TempWeatherWind HumidityBarometerVisibility
10:53 AM
Tue, Aug 4
70 °FPartly sunny.6 mph87%29.85 "Hg10 mi
10:03 AM68 °FBroken clouds.No wind93%29.84 "Hg7 mi
9:53 AM68 °FPartly sunny.3 mph93%29.83 "Hg7 mi
8:53 AM67 °FOvercast.3 mph93%29.83 "Hg10 mi
7:53 AM67 °FSunny.No wind90%29.82 "Hg9 mi
6:53 AM65 °FFog.No wind94%29.83 "Hg5 mi
5:53 AM64 °FFog.3 mph97%29.81 "Hg5 mi
5:03 AM64 °FFog.3 mph97%29.82 "Hg2 mi
4:53 AM64 °FFog.No wind97%29.80 "Hg3 mi
3:53 AM64 °FFog.No wind97%29.80 "Hg6 mi
2:53 AM65 °FFog.No wind94%29.80 "Hg4 mi
1:53 AM66 °FClear.No wind90%29.78 "Hg10 mi
12:53 AM66 °FPassing clouds.No wind93%29.80 "Hg7 mi
11:53 PM
Mon, Aug 3
66 °FPassing clouds.3 mph93%29.79 "Hg10 mi
11:02 PM67 °FHeavy rain. Fog.9 mph87%29.79 "Hg2 mi
10:53 PM71 °FPartly cloudy.7 mph73%29.78 "Hg10 mi
9:53 PM73 °FPassing clouds.3 mph64%29.78 "Hg10 mi
8:53 PM75 °FBroken clouds.8 mph58%29.78 "Hg10 mi
7:53 PM75 °FSunny.9 mph60%29.75 "Hg10 mi
6:53 PM77 °FSunny.10 mph58%29.73 "Hg10 mi
5:53 PM80 °FSunny.17 mph51%29.72 "Hg10 mi
4:53 PM81 °FSunny.9 mph53%29.74 "Hg10 mi
3:53 PM81 °FSunny.13 mph53%29.75 "Hg10 mi
2:53 PM82 °FSunny.9 mph55%29.77 "Hg10 mi
1:53 PM82 °FSunny.14 mph55%29.78 "Hg10 mi
12:53 PM81 °FSunny.13 mph56%29.78 "Hg10 mi
Weather by CustomWeather, © 2015

See weather overviewHow to use our weather pages